User: anonymous   Login
Location: Bégole
(43.1574°N, 0.3291°E)
Time: 01:58:06
(UTC+00:00)
Language:

IRIDIUM 106 - Orbit

View from above orbital plane
View from above orbital plane
View from above satellite
View from above satellite

Ground track
Ground track

The orbit data is extracted from the following two-line orbital elements,

1 41917U 17003A   23146.68289943  .00000258  00000-0  84883-4 0  9998
2 41917  86.4015 195.5022 0002413  83.7141 276.4329 14.34219683333032
Epoch (UTC): 26 May 2023 16:23:22
Eccentricity: 0.0002413
inclination: 86.4015°
perigee height: 776 km
apogee height: 779 km
right ascension of ascending node: 195.5022°
argument of perigee: 83.7141°
revolutions per day: 14.34219683
mean anomaly at epoch: 276.4329°
orbit number at epoch: 33303

The dashed part of the orbit path shows where the satellite is in the earth's shadow,  

DLR